When you browse on this site, cookies collect data to enhance your experience and personalize the content and advertising you see.
Visit our Privacy Policy to learn more. By continuing to use the site, you agree to this use of cookies and data.
  • în România
  • Lista ţărilor
  • Pe 7 zile
  • Temperatura apei
  • Meteo pe hartă
  • Widget-uri
  • user-avatar
    Intrare

    Meteo pe oră la Maturín

    Astăzi, 12 Decembrie, Joi

    Timp Temperatura Precipitaţii Vânt Presiune Umiditate
    00:00 +24°C° 0.1 mm 2 m/s 754 mmHg 96%
    01:00 +24°C° 0.1 mm 2 m/s 754 mmHg 96%
    02:00 +25°C° 0 mm 1 m/s 753 mmHg 97%
    03:00 +24°C° 0.4 mm 1 m/s 753 mmHg 97%
    04:00 +24°C° 0.4 mm 1 m/s 753 mmHg 96%
    05:00 +24°C° 0.4 mm 1 m/s 754 mmHg 95%
    06:00 +25°C° 0.2 mm 1 m/s 754 mmHg 95%
    07:00 +25°C° 0.2 mm 1 m/s 754 mmHg 94%
    08:00 +25°C° 0 mm 1 m/s 755 mmHg 94%
    09:00 +25°C° 0.1 mm 1 m/s 755 mmHg 91%
    10:00 +26°C° 0.1 mm 2 m/s 755 mmHg 89%
    11:00 +26°C° 0.1 mm 2 m/s 755 mmHg 87%
    12:00 +27°C° 0.2 mm 2 m/s 754 mmHg 82%
    13:00 +28°C° 0.2 mm 2 m/s 754 mmHg 78%
    14:00 +29°C° 0.2 mm 2 m/s 753 mmHg 73%
    15:00 +28°C° 0.3 mm 2 m/s 752 mmHg 77%
    16:00 +28°C° 0.3 mm 2 m/s 752 mmHg 80%
    17:00 +27°C° 0.3 mm 2 m/s 752 mmHg 83%
    18:00 +26°C° 0 mm 2 m/s 753 mmHg 87%
    19:00 +25°C° 0 mm 2 m/s 753 mmHg 91%
    20:00 +24°C° 0 mm 1 m/s 753 mmHg 95%
    21:00 +24°C° 0 mm 1 m/s 754 mmHg 95%
    22:00 +24°C° 0 mm 1 m/s 754 mmHg 96%
    23:00 +23°C° 0 mm 1 m/s 755 mmHg 96%

    Mâine, 13 Decembrie, Vineri

    Timp Temperatura Precipitaţii Vânt Presiune Umiditate
    00:00 +23°C° 0 mm 1 m/s 754 mmHg 97%
    01:00 +23°C° 0 mm 1 m/s 754 mmHg 97%
    02:00 +23°C° 0 mm 1 m/s 753 mmHg 97%
    03:00 +23°C° 0 mm 1 m/s 753 mmHg 97%
    04:00 +23°C° 0 mm 1 m/s 753 mmHg 97%
    05:00 +23°C° 0 mm 1 m/s 753 mmHg 97%
    06:00 +24°C° 0 mm 1 m/s 754 mmHg 94%
    07:00 +25°C° 0 mm 1 m/s 754 mmHg 91%
    08:00 +26°C° 0 mm 1 m/s 754 mmHg 88%
    09:00 +27°C° 0 mm 1 m/s 754 mmHg 81%
    10:00 +29°C° 0 mm 2 m/s 755 mmHg 74%
    11:00 +30°C° 0 mm 2 m/s 755 mmHg 67%
    12:00 +31°C° 0.1 mm 2 m/s 754 mmHg 65%
    13:00 +31°C° 0.1 mm 2 m/s 753 mmHg 64%
    14:00 +32°C° 0.1 mm 2 m/s 752 mmHg 62%
    15:00 +30°C° 0.3 mm 2 m/s 752 mmHg 69%
    16:00 +29°C° 0.3 mm 2 m/s 752 mmHg 76%
    17:00 +28°C° 0.3 mm 3 m/s 752 mmHg 83%
    18:00 +27°C° 0 mm 2 m/s 752 mmHg 87%
    19:00 +26°C° 0 mm 2 m/s 753 mmHg 90%
    20:00 +25°C° 0 mm 2 m/s 753 mmHg 93%
    21:00 +25°C° 0 mm 2 m/s 754 mmHg 94%
    22:00 +24°C° 0 mm 1 m/s 754 mmHg 95%
    23:00 +24°C° 0 mm 1 m/s 754 mmHg 96%

    Poimâine, 14 Decembrie, Sâmbătă

    Timp Temperatura Precipitaţii Vânt Presiune Umiditate
    00:00 +24°C° 0 mm 1 m/s 754 mmHg 96%
    01:00 +24°C° 0 mm 1 m/s 754 mmHg 97%
    02:00 +24°C° 0 mm 1 m/s 753 mmHg 97%
    03:00 +24°C° 0 mm 1 m/s 753 mmHg 97%
    04:00 +24°C° 0 mm 1 m/s 753 mmHg 97%
    05:00 +24°C° 0 mm 1 m/s 753 mmHg 97%
    06:00 +25°C° 0 mm 1 m/s 754 mmHg 94%
    07:00 +25°C° 0 mm 1 m/s 754 mmHg 92%
    08:00 +26°C° 0 mm 2 m/s 755 mmHg 89%
    09:00 +28°C° 0.1 mm 2 m/s 755 mmHg 82%
    10:00 +29°C° 0.1 mm 2 m/s 755 mmHg 75%
    11:00 +31°C° 0.1 mm 3 m/s 755 mmHg 67%
    12:00 +31°C° 0.2 mm 3 m/s 755 mmHg 67%
    13:00 +31°C° 0.2 mm 3 m/s 754 mmHg 67%
    14:00 +33°C° 0.2 mm 3 m/s 753 mmHg 66%
    15:00 +31°C° 0.1 mm 3 m/s 753 mmHg 70%
    16:00 +30°C° 0.1 mm 3 m/s 753 mmHg 73%
    17:00 +29°C° 0.1 mm 3 m/s 752 mmHg 77%
    18:00 +28°C° 0 mm 2 m/s 753 mmHg 82%
    19:00 +27°C° 0 mm 2 m/s 754 mmHg 88%
    20:00 +25°C° 0 mm 2 m/s 754 mmHg 94%
    21:00 +25°C° 0 mm 2 m/s 754 mmHg 95%
    22:00 +25°C° 0 mm 1 m/s 755 mmHg 96%
    23:00 +24°C° 0 mm 1 m/s 755 mmHg 97%

    15 Decembrie, Duminică

    Timp Temperatura Precipitaţii Vânt Presiune Umiditate
    00:00 +24°C° 0 mm 1 m/s 755 mmHg 97%
    01:00 +24°C° 0 mm 1 m/s 754 mmHg 97%
    02:00 +24°C° 0 mm 1 m/s 754 mmHg 97%
    03:00 +24°C° 0 mm 1 m/s 754 mmHg 97%
    04:00 +24°C° 0 mm 1 m/s 754 mmHg 97%
    05:00 +24°C° 0 mm 1 m/s 754 mmHg 97%
    06:00 +25°C° 0 mm 1 m/s 755 mmHg 94%
    07:00 +26°C° 0 mm 1 m/s 755 mmHg 91%
    08:00 +27°C° 0 mm 1 m/s 756 mmHg 88%
    09:00 +28°C° 0.2 mm 1 m/s 756 mmHg 82%
    10:00 +30°C° 0.2 mm 2 m/s 756 mmHg 76%
    11:00 +31°C° 0.2 mm 2 m/s 756 mmHg 70%
    12:00 +31°C° 0.3 mm 2 m/s 755 mmHg 70%
    13:00 +31°C° 0.3 mm 2 m/s 755 mmHg 69%
    14:00 +31°C° 0.3 mm 3 m/s 754 mmHg 69%
    15:00 +31°C° 0.3 mm 3 m/s 754 mmHg 73%
    16:00 +30°C° 0.3 mm 3 m/s 753 mmHg 78%
    17:00 +29°C° 0.3 mm 2 m/s 753 mmHg 82%
    18:00 +28°C° 0.2 mm 2 m/s 754 mmHg 86%
    19:00 +27°C° 0.2 mm 2 m/s 754 mmHg 90%
    20:00 +25°C° 0.2 mm 2 m/s 755 mmHg 94%
    21:00 +25°C° 0 mm 1 m/s 755 mmHg 94%
    22:00 +25°C° 0 mm 1 m/s 755 mmHg 95%
    23:00 +25°C° 0 mm 1 m/s 755 mmHg 95%

    16 Decembrie, Luni

    Timp Temperatura Precipitaţii Vânt Presiune Umiditate
    00:00 +25°C° 0 mm 1 m/s 755 mmHg 95%
    01:00 +24°C° 0 mm 1 m/s 754 mmHg 96%
    02:00 +24°C° 0 mm 1 m/s 754 mmHg 96%
    03:00 +24°C° 0 mm 1 m/s 754 mmHg 96%
    04:00 +24°C° 0 mm 1 m/s 754 mmHg 96%
    05:00 +24°C° 0 mm 1 m/s 754 mmHg 96%
    06:00 +25°C° 0.1 mm 1 m/s 754 mmHg 93%
    07:00 +26°C° 0.1 mm 1 m/s 755 mmHg 90%
    08:00 +27°C° 0.1 mm 1 m/s 755 mmHg 88%
    09:00 +28°C° 1.1 mm 2 m/s 755 mmHg 85%
    10:00 +29°C° 1.1 mm 3 m/s 755 mmHg 83%
    11:00 +29°C° 1.1 mm 3 m/s 756 mmHg 81%
    12:00 +29°C° 1.3 mm 4 m/s 755 mmHg 82%
    13:00 +29°C° 1.3 mm 4 m/s 754 mmHg 83%
    14:00 +29°C° 1.3 mm 4 m/s 753 mmHg 84%
    15:00 +28°C° 1.2 mm 3 m/s 753 mmHg 86%
    16:00 +28°C° 1.2 mm 3 m/s 753 mmHg 89%
    17:00 +27°C° 1.2 mm 2 m/s 753 mmHg 92%
    18:00 +26°C° 0.4 mm 2 m/s 753 mmHg 93%
    19:00 +26°C° 0.4 mm 2 m/s 754 mmHg 95%
    20:00 +25°C° 0.4 mm 2 m/s 754 mmHg 96%
    21:00 +25°C° 0.1 mm 2 m/s 755 mmHg 96%
    22:00 +25°C° 0.1 mm 2 m/s 755 mmHg 97%
    23:00 +25°C° 0.1 mm 2 m/s 755 mmHg 97%

    17 Decembrie, Marţi

    Timp Temperatura Precipitaţii Vânt Presiune Umiditate
    00:00 +25°C° 0.2 mm 2 m/s 755 mmHg 97%
    01:00 +24°C° 0.2 mm 2 m/s 754 mmHg 97%
    02:00 +24°C° 0.2 mm 1 m/s 754 mmHg 97%
    03:00 +24°C° 0.3 mm 2 m/s 754 mmHg 97%
    04:00 +24°C° 0.3 mm 2 m/s 754 mmHg 97%
    05:00 +24°C° 0.3 mm 2 m/s 754 mmHg 97%
    06:00 +25°C° 0.1 mm 2 m/s 755 mmHg 95%
    07:00 +26°C° 0.1 mm 2 m/s 755 mmHg 93%
    08:00 +26°C° 0.1 mm 3 m/s 755 mmHg 91%
    09:00 +27°C° 0.3 mm 3 m/s 755 mmHg 84%
    10:00 +29°C° 0.3 mm 3 m/s 755 mmHg 78%
    11:00 +30°C° 0.3 mm 4 m/s 755 mmHg 71%
    12:00 +30°C° 0.6 mm 4 m/s 755 mmHg 72%
    13:00 +30°C° 0.6 mm 4 m/s 754 mmHg 73%
    14:00 +30°C° 0.6 mm 4 m/s 753 mmHg 74%
    15:00 +29°C° 0.2 mm 3 m/s 753 mmHg 77%
    16:00 +28°C° 0.2 mm 3 m/s 753 mmHg 79%
    17:00 +28°C° 0.2 mm 3 m/s 752 mmHg 82%
    18:00 +27°C° 0 mm 2 m/s 753 mmHg 86%
    19:00 +26°C° 0 mm 2 m/s 753 mmHg 90%
    20:00 +25°C° 0 mm 2 m/s 754 mmHg 94%
    21:00 +24°C° 0.1 mm 2 m/s 754 mmHg 95%
    22:00 +24°C° 0.1 mm 2 m/s 755 mmHg 96%
    23:00 +24°C° 0.1 mm 2 m/s 755 mmHg 97%
    Arată mai mult